Regional Weather Roundup
Issued by NWS

Home | Current Version | Previous Version | Text Only | Print | Product List | Glossary On
Versions: 1 2 3 4 5 6 7 8 9 10 11 12 13 14 15 16 17 18 19 20 21 22 23 24 25 26 27 28 29 30 31 32 33 34 35 36 37 38 39 40 41 42 43 44 45 46 47 48 49 50
000
ASUS43 KFSD 200910
RWRSD

WEATHER ROUNDUP FOR SOUTH DAKOTA
NATIONAL WEATHER SERVICE SIOUX FALLS SD
400 AM CDT WED AUG 20 2014

NOTE: "FAIR" INDICATES FEW OR NO CLOUDS BELOW 12,000 FEET WITH NO
SIGNIFICANT WEATHER AND/OR OBSTRUCTIONS TO VISIBILITY.


SDZ001>005-009-010-012>017-201000-
NORTHWEST AND NORTH CENTRAL SOUTH DAKOTA

CITY           SKY/WX    TMP DP  RH WIND       PRES   REMARKS
BUFFALO          N/A     71  61  70 SE12      29.64R
FAITH            N/A     71  63  75 S17       29.72R
MOBRIDGE       CLEAR     67  65  93 SE10      29.68F
$$

SDZ012>016-024>037-041>051-057-063-072>074-201000-
SOUTHWEST AND SOUTH CENTRAL SOUTH DAKOTA

CITY           SKY/WX    TMP DP  RH WIND       PRES   REMARKS
RAPID CTY ARPT MOCLDY    68  55  63 SE6       29.72F
PIERRE         MOCLDY    68  59  73 SE16      29.69F
CUSTER         CLOUDY    62  47  57 W6        29.88F
ELLSWORTH AFB  CLOUDY    72  54  53 S12       29.71F
PHILIP         PTCLDY    70  64  81 E9        29.70F
PINE RIDGE     MOCLDY    66  59  78 S3        29.75S
WINNER         FAIR      73  67  81 E7        29.73F
$$

SDZ004>011-016>023-039-040-201000-
NORTHEAST SOUTH DAKOTA

CITY           SKY/WX    TMP DP  RH WIND       PRES   REMARKS
ABERDEEN       CLOUDY    63  61  93 SE8       29.77R
WATERTOWN      MOCLDY    64  60  87 S5        29.81R
SISSETON         N/A     62  62 100 SE5       29.77S
$$

SDZ017-020-022-023-036>040-048>070-201000-
SOUTHEAST SOUTH DAKOTA

CITY           SKY/WX    TMP DP  RH WIND       PRES   REMARKS
SIOUX FALLS    CLOUDY    68  63  84 E3        29.79S
HURON          LGT RAIN  67  62  84 SE6       29.74F
CHAMBERLAIN    CLOUDY    68  65  90 NE15G23   29.79R
MITCHELL       CLOUDY    70  64  81 SE7       29.75F
YANKTON        MOCLDY    66  64  94 S3        29.79R THUNDER
$$

ABBREVIATIONS USED IN REMARKS
   TC - TEMPERATURE IN CELSIUS
  WCI - WIND CHILL INDEX
   HX - HEAT INDEX
  VSB - VISIBILITY




USA.gov is the U.S. government's official web portal to all federal, state and local government web resources and services.